SCOUT A DEB, 2580

Orbit data source: Space-Track

SCOUT A DEB, 2580 is space debris in LEO originally from a launch on Thu, 18 Aug 1966 UTC launched from the Air Force Western Test Range (AFWTR). Debris objects in space refer to the collection of defunct objects orbiting the Earth. Examples of debris include non-operational satellites, rocket bodies, and fragments generated from explosions, collisions, or faulty payload assembly.

Loading next visibility...
Identifier
2580, 1966-076C
Orbit
LEO
Country
Flag of USUS
Related business
Manufacturer
Unknown
Mission
Spacecraft
Bus & Motor
Unknown
Mass
Unknown
Launch date (UTC)
1966-08-18 (59 years ago)
Launch vehicle
Unknown
Launch site
Air Force Western Test Range (AFWTR)
Object type
Payload
Rocket body
Debris
Shape & HBR
Unknown shape, 0.1 m
Radar Cross Section
Small (<0.1 m²)

Expand to show TLE details & history
Last TLE update: 1 day ago

TLE from 1 day ago
0 SCOUT A DEB
1 02580U 66076C   25308.02160706  .00000325  00000-0  30000-3 0  9996
2 02580  89.1374 307.1735 0092727 287.8230 126.1872 13.78620526960880
Epoch: 2025-11-04T00:31Z
TLE epoch observation values (Epoch: 2025-11-04T00:31:06.849Z)
Latitude
54.94728°
Longitude
-102.8963°
Altitude
1,018.602 km
Speed
7.327 km/s
True Right ascension
20h 33m 35s
True Declination
54° 47' 28"
Sunlit
Object was in daylight at epoch
Visualization orbit readout
Latitude
Unknown
Longitude
Unknown
Altitude
Unknown
Speed
Unknown
Apparent Right ascension
Unknown
Apparent Declination
Unknown
Sunlit
N/A
Visualization observer readout
Local Sidereal Time
23:54:04
Azimuth
Unknown
Elevation
Unknown
Doppler factor
Unknown
Orbital elements
Apogee altitude
1,033.891 km
Perigee altitude
897.695 km
Semi-major axis
7,343.93 km
Eccentricity
0.00927
Inclination
89.1374°
RAAN
307.1735°
Arg. of periapsis
287.823°
True anomaly
127.03893°
Mean anomaly
126.1872°
Eccentric anomaly
126.61365°
Mean motion
3.44866 °/min
Orbital period
104.39 mins
BSTAR
0.0003
Loading maneuver chart data...
Computing Atmospheric mass density...
Loading historical data...
Loading historical data...
Loading historical data...
Loading historical data...
Loading historical data...
Loading historical data...
Loading historical data...

Documentation

Showing up to 5 results
|